TimeMST,TemperatureF,Dew PointF,Humidity,Sea Level PressureIn,VisibilityMPH,Wind Direction,Wind SpeedMPH,Gust SpeedMPH,PrecipitationIn,Events,Conditions,WindDirDegrees,DateUTC
12:53 AM,9.0,5.0,84,30.34,10.0,NNW,3.5,-,N/A,,Clear,330,2013-01-06 07:53:00
1:53 AM,7.0,3.9,87,30.34,10.0,Calm,Calm,-,N/A,,Clear,0,2013-01-06 08:53:00
2:53 AM,5.0,1.9,87,30.34,10.0,Calm,Calm,-,N/A,,Clear,0,2013-01-06 09:53:00
3:53 AM,3.9,1.0,88,30.33,10.0,ENE,4.6,-,N/A,,Clear,70,2013-01-06 10:53:00
4:53 AM,3.0,-0.9,84,30.32,10.0,East,5.8,-,N/A,,Clear,100,2013-01-06 11:53:00
5:53 AM,3.9,-0.9,80,30.33,10.0,ESE,4.6,-,N/A,,Clear,110,2013-01-06 12:53:00
6:53 AM,5.0,1.0,84,30.32,10.0,Calm,Calm,-,N/A,,Clear,0,2013-01-06 13:53:00
7:53 AM,3.9,-0.0,84,30.33,10.0,NW,3.5,-,N/A,,Clear,320,2013-01-06 14:53:00
8:53 AM,9.0,5.0,84,30.29,10.0,Calm,Calm,-,N/A,,Clear,0,2013-01-06 15:53:00
9:53 AM,16.0,9.0,74,30.29,10.0,Calm,Calm,-,N/A,,Clear,0,2013-01-06 16:53:00
10:53 AM,25.0,14.0,63,30.21,10.0,Calm,Calm,-,N/A,,Clear,0,2013-01-06 17:53:00
11:53 AM,32.0,14.0,48,30.16,10.0,SSE,4.6,-,N/A,,Clear,160,2013-01-06 18:53:00
12:53 PM,39.9,15.1,36,30.08,10.0,SSE,9.2,-,N/A,,Clear,150,2013-01-06 19:53:00
1:53 PM,44.1,17.1,34,30.04,10.0,SE,6.9,-,N/A,,Clear,140,2013-01-06 20:53:00
2:53 PM,46.9,19.9,34,30.02,10.0,SE,5.8,-,N/A,,Clear,140,2013-01-06 21:53:00
3:53 PM,43.0,24.1,47,30.04,10.0,NNE,6.9,-,N/A,,Clear,20,2013-01-06 22:53:00
4:53 PM,37.9,21.9,53,30.05,10.0,WNW,4.6,-,N/A,,Clear,290,2013-01-06 23:53:00
5:53 PM,36.0,19.0,50,30.06,10.0,NW,6.9,-,N/A,,Clear,310,2013-01-07 00:53:00
6:53 PM,30.9,18.0,59,30.08,10.0,Variable,3.5,-,N/A,,Clear,0,2013-01-07 01:53:00
7:53 PM,32.0,16.0,52,30.05,10.0,Calm,Calm,-,N/A,,Clear,0,2013-01-07 02:53:00
8:53 PM,30.0,15.1,54,30.04,10.0,Calm,Calm,-,N/A,,Clear,0,2013-01-07 03:53:00
9:53 PM,25.0,15.1,66,30.04,10.0,NE,3.5,-,N/A,,Clear,40,2013-01-07 04:53:00
10:53 PM,32.0,12.9,45,29.96,10.0,SSW,3.5,-,N/A,,Clear,200,2013-01-07 05:53:00
11:53 PM,30.9,14.0,50,29.96,10.0,NW,3.5,-,N/A,,Clear,320,2013-01-07 06:53:00